Year,Month,Day,Hour,Minute,Value (Times are PST for temperature in C)
2011,08,27,00,00,18.20
2011,08,27,00,01,18.20
2011,08,27,00,02,18.10
2011,08,27,00,03,18.10
2011,08,27,00,04,18.10
2011,08,27,00,05,18.10
2011,08,27,00,06,18.10
2011,08,27,00,07,18.00
2011,08,27,00,08,17.90
2011,08,27,00,09,17.90
2011,08,27,00,10,17.90
2011,08,27,00,11,17.90
2011,08,27,00,12,17.90
2011,08,27,00,13,17.90
2011,08,27,00,14,17.90
2011,08,27,00,15,17.90
2011,08,27,00,16,17.90
2011,08,27,00,17,17.90
2011,08,27,00,18,17.80
2011,08,27,00,19,17.80
2011,08,27,00,20,17.80
2011,08,27,00,21,17.80
2011,08,27,00,22,17.70
2011,08,27,00,23,17.70
2011,08,27,00,24,17.70
2011,08,27,00,25,17.60
2011,08,27,00,26,17.60
2011,08,27,00,27,17.50
2011,08,27,00,28,17.50
2011,08,27,00,29,17.50
2011,08,27,00,30,17.40
2011,08,27,00,31,17.40
2011,08,27,00,32,17.40
2011,08,27,00,33,17.30
2011,08,27,00,34,17.30
2011,08,27,00,35,17.30
2011,08,27,00,36,17.30
2011,08,27,00,37,17.20
2011,08,27,00,38,17.20
2011,08,27,00,39,17.20
2011,08,27,00,40,17.20
2011,08,27,00,41,17.10
2011,08,27,00,42,17.10
2011,08,27,00,43,17.10
2011,08,27,00,44,17.10
2011,08,27,00,45,17.00
2011,08,27,00,46,17.00
2011,08,27,00,47,16.90
2011,08,27,00,48,16.90
2011,08,27,00,49,16.90
2011,08,27,00,50,16.90
2011,08,27,00,51,16.90
2011,08,27,00,52,16.80
2011,08,27,00,53,16.80
2011,08,27,00,54,16.80
2011,08,27,00,55,16.80
2011,08,27,00,56,16.80
2011,08,27,00,57,16.90
2011,08,27,00,58,16.90
2011,08,27,00,59,16.90
2011,08,27,01,00,16.80
2011,08,27,01,01,16.80
2011,08,27,01,02,16.80
2011,08,27,01,03,16.80
2011,08,27,01,04,16.80
2011,08,27,01,05,16.70
2011,08,27,01,06,16.70
2011,08,27,01,07,16.70
2011,08,27,01,08,16.70
2011,08,27,01,09,16.70
2011,08,27,01,10,16.70
2011,08,27,01,11,16.70
2011,08,27,01,12,16.70
2011,08,27,01,13,16.60
2011,08,27,01,14,16.60
2011,08,27,01,15,16.60
2011,08,27,01,16,16.60
2011,08,27,01,17,16.60
2011,08,27,01,18,16.50
2011,08,27,01,19,16.40
2011,08,27,01,20,16.40
2011,08,27,01,21,16.40
2011,08,27,01,22,16.40
2011,08,27,01,23,16.40
2011,08,27,01,24,16.40
2011,08,27,01,25,16.40
2011,08,27,01,26,16.40
2011,08,27,01,27,16.40
2011,08,27,01,28,16.40
2011,08,27,01,29,16.30
2011,08,27,01,30,16.30
2011,08,27,01,31,16.30
2011,08,27,01,32,16.30
2011,08,27,01,33,16.20
2011,08,27,01,34,16.20
2011,08,27,01,35,16.20
2011,08,27,01,36,16.20
2011,08,27,01,37,16.10
2011,08,27,01,38,16.10
2011,08,27,01,39,16.10
2011,08,27,01,40,16.10
2011,08,27,01,41,16.10
2011,08,27,01,42,16.10
2011,08,27,01,43,16.10
2011,08,27,01,44,16.10
2011,08,27,01,45,16.00
2011,08,27,01,46,15.90
2011,08,27,01,47,15.90
2011,08,27,01,48,15.90
2011,08,27,01,49,15.80
2011,08,27,01,50,15.80
2011,08,27,01,51,15.80
2011,08,27,01,52,15.80
2011,08,27,01,53,15.80
2011,08,27,01,54,15.80
2011,08,27,01,55,15.70
2011,08,27,01,56,15.70
2011,08,27,01,57,15.70
2011,08,27,01,58,15.70
2011,08,27,01,59,15.70
2011,08,27,02,00,15.60
2011,08,27,02,01,15.60
2011,08,27,02,02,15.60
2011,08,27,02,03,15.60
2011,08,27,02,04,15.60
2011,08,27,02,05,15.60
2011,08,27,02,06,15.60
2011,08,27,02,07,15.60
2011,08,27,02,08,15.60
2011,08,27,02,09,15.60
2011,08,27,02,10,15.60
2011,08,27,02,11,15.50
2011,08,27,02,12,15.50
2011,08,27,02,13,15.50
2011,08,27,02,14,15.50
2011,08,27,02,15,15.50
2011,08,27,02,16,15.50
2011,08,27,02,17,15.40
2011,08,27,02,18,15.40
2011,08,27,02,19,15.40
2011,08,27,02,20,15.40
2011,08,27,02,21,15.40
2011,08,27,02,22,15.40
2011,08,27,02,23,15.30
2011,08,27,02,24,15.30
2011,08,27,02,25,15.30
2011,08,27,02,26,15.30
2011,08,27,02,27,15.30
2011,08,27,02,28,15.20
2011,08,27,02,29,15.20
2011,08,27,02,30,15.20
2011,08,27,02,31,15.20
2011,08,27,02,32,15.20
2011,08,27,02,33,15.10
2011,08,27,02,34,15.10
2011,08,27,02,35,15.10
2011,08,27,02,36,15.10
2011,08,27,02,37,15.10
2011,08,27,02,38,15.00
2011,08,27,02,39,15.00
2011,08,27,02,40,15.00
2011,08,27,02,41,15.00
2011,08,27,02,42,15.00
2011,08,27,02,43,15.00
2011,08,27,02,44,15.00
2011,08,27,02,45,15.00
2011,08,27,02,46,15.00
2011,08,27,02,47,15.00
2011,08,27,02,48,15.00
2011,08,27,02,49,15.00
2011,08,27,02,50,15.00
2011,08,27,02,51,14.90
2011,08,27,02,52,14.90
2011,08,27,02,53,14.90
2011,08,27,02,54,14.90
2011,08,27,02,55,14.90
2011,08,27,02,56,14.90
2011,08,27,02,57,14.90
2011,08,27,02,58,14.90
2011,08,27,02,59,14.80
2011,08,27,03,00,14.80
2011,08,27,03,01,14.80
2011,08,27,03,02,14.80
2011,08,27,03,03,14.80
2011,08,27,03,04,14.80
2011,08,27,03,05,14.80
2011,08,27,03,06,14.80
2011,08,27,03,07,14.80
2011,08,27,03,08,14.80
2011,08,27,03,09,14.80
2011,08,27,03,10,14.80
2011,08,27,03,11,14.80
2011,08,27,03,12,14.80
2011,08,27,03,13,14.70
2011,08,27,03,14,14.70
2011,08,27,03,15,14.70
2011,08,27,03,16,14.70
2011,08,27,03,17,14.70
2011,08,27,03,18,14.70
2011,08,27,03,19,14.70
2011,08,27,03,20,14.70
2011,08,27,03,21,14.70
2011,08,27,03,22,14.70
2011,08,27,03,23,14.70
2011,08,27,03,24,14.70
2011,08,27,03,25,14.70
2011,08,27,03,26,14.70
2011,08,27,03,27,14.70
2011,08,27,03,28,14.70
2011,08,27,03,29,14.70
2011,08,27,03,30,14.60
2011,08,27,03,31,14.60
2011,08,27,03,32,14.60
2011,08,27,03,33,14.60
2011,08,27,03,34,14.50
2011,08,27,03,35,14.50
2011,08,27,03,36,14.50
2011,08,27,03,37,14.50
2011,08,27,03,38,14.50
2011,08,27,03,39,14.50
2011,08,27,03,40,14.50
2011,08,27,03,41,14.50
2011,08,27,03,42,14.50
2011,08,27,03,43,14.50
2011,08,27,03,44,14.50
2011,08,27,03,45,14.50
2011,08,27,03,46,14.50
2011,08,27,03,47,14.40
2011,08,27,03,48,14.40
2011,08,27,03,49,14.40
2011,08,27,03,50,14.40
2011,08,27,03,51,14.40
2011,08,27,03,52,14.30
2011,08,27,03,53,14.30
2011,08,27,03,54,14.30
2011,08,27,03,55,14.30
2011,08,27,03,56,14.30
2011,08,27,03,57,14.40
2011,08,27,03,58,14.40
2011,08,27,03,59,14.30
2011,08,27,04,00,14.30
2011,08,27,04,01,14.30
2011,08,27,04,02,14.30
2011,08,27,04,03,14.30
2011,08,27,04,04,14.30
2011,08,27,04,05,14.30
2011,08,27,04,06,14.30
2011,08,27,04,07,14.30
2011,08,27,04,08,14.30
2011,08,27,04,09,14.30
2011,08,27,04,10,14.30
2011,08,27,04,11,14.30
2011,08,27,04,12,14.30
2011,08,27,04,13,14.30
2011,08,27,04,14,14.30
2011,08,27,04,15,14.30
2011,08,27,04,16,14.30
2011,08,27,04,17,14.20
2011,08,27,04,18,14.20
2011,08,27,04,19,14.20
2011,08,27,04,20,14.20
2011,08,27,04,21,14.20
2011,08,27,04,22,14.20
2011,08,27,04,23,14.20
2011,08,27,04,24,14.20
2011,08,27,04,25,14.20
2011,08,27,04,26,14.20
2011,08,27,04,27,14.20
2011,08,27,04,28,14.20
2011,08,27,04,29,14.20
2011,08,27,04,30,14.20
2011,08,27,04,31,14.20
2011,08,27,04,32,14.20
2011,08,27,04,33,14.20
2011,08,27,04,34,14.20
2011,08,27,04,35,14.20
2011,08,27,04,36,14.20
2011,08,27,04,37,14.20
2011,08,27,04,38,14.20
2011,08,27,04,39,14.20
2011,08,27,04,40,14.10
2011,08,27,04,41,14.10
2011,08,27,04,42,14.00
2011,08,27,04,43,14.00
2011,08,27,04,44,14.00
2011,08,27,04,45,14.00
2011,08,27,04,46,14.00
2011,08,27,04,47,14.00
2011,08,27,04,48,14.00
2011,08,27,04,49,14.00
2011,08,27,04,50,14.00
2011,08,27,04,51,14.00
2011,08,27,04,52,13.90
2011,08,27,04,53,13.90
2011,08,27,04,54,13.90
2011,08,27,04,55,13.90
2011,08,27,04,56,13.90
2011,08,27,04,57,13.90
2011,08,27,04,58,13.90
2011,08,27,04,59,13.90
2011,08,27,05,00,13.90
2011,08,27,05,01,13.90
2011,08,27,05,02,13.80
2011,08,27,05,03,13.80
2011,08,27,05,04,13.80
2011,08,27,05,05,13.80
2011,08,27,05,06,13.80
2011,08,27,05,07,13.80
2011,08,27,05,08,13.80
2011,08,27,05,09,13.80
2011,08,27,05,10,13.80
2011,08,27,05,11,13.80
2011,08,27,05,12,13.80
2011,08,27,05,13,13.80
2011,08,27,05,14,13.80
2011,08,27,05,15,13.70
2011,08,27,05,16,13.70
2011,08,27,05,17,13.70
2011,08,27,05,18,13.70
2011,08,27,05,19,13.70
2011,08,27,05,20,13.70
2011,08,27,05,21,13.70
2011,08,27,05,22,13.60
2011,08,27,05,23,13.60
2011,08,27,05,24,13.60
2011,08,27,05,25,13.60
2011,08,27,05,26,13.60
2011,08,27,05,27,13.60
2011,08,27,05,28,13.60
2011,08,27,05,29,13.60
2011,08,27,05,30,13.60
2011,08,27,05,31,13.60
2011,08,27,05,32,13.60
2011,08,27,05,33,13.60
2011,08,27,05,34,13.60
2011,08,27,05,35,13.50
2011,08,27,05,36,13.50
2011,08,27,05,37,13.50
2011,08,27,05,38,13.50
2011,08,27,05,39,13.50
2011,08,27,05,40,13.50
2011,08,27,05,41,13.50
2011,08,27,05,42,13.50
2011,08,27,05,43,13.50
2011,08,27,05,44,13.50
2011,08,27,05,45,13.50
2011,08,27,05,46,13.50
2011,08,27,05,47,13.50
2011,08,27,05,48,13.60
2011,08,27,05,49,13.60
2011,08,27,05,50,13.60
2011,08,27,05,51,13.60
2011,08,27,05,52,13.50
2011,08,27,05,53,13.50
2011,08,27,05,54,13.50
2011,08,27,05,55,13.50
2011,08,27,05,56,13.50
2011,08,27,05,57,13.40
2011,08,27,05,58,13.40
2011,08,27,05,59,13.30
2011,08,27,06,00,13.30
2011,08,27,06,01,13.30
2011,08,27,06,02,13.30
2011,08,27,06,03,13.30
2011,08,27,06,04,13.30
2011,08,27,06,05,13.30
2011,08,27,06,06,13.30
2011,08,27,06,07,13.30
2011,08,27,06,08,13.30
2011,08,27,06,09,13.30
2011,08,27,06,10,13.20
2011,08,27,06,11,13.30
2011,08,27,06,12,13.30
2011,08,27,06,13,13.30
2011,08,27,06,14,13.30
2011,08,27,06,15,13.30
2011,08,27,06,16,13.30
2011,08,27,06,17,13.20
2011,08,27,06,18,13.20
2011,08,27,06,19,13.20
2011,08,27,06,20,13.20
2011,08,27,06,21,13.20
2011,08,27,06,22,13.20
2011,08,27,06,23,13.20
2011,08,27,06,24,13.10
2011,08,27,06,25,13.10
2011,08,27,06,26,13.10
2011,08,27,06,27,13.10
2011,08,27,06,28,13.20
2011,08,27,06,29,13.20
2011,08,27,06,30,13.20
2011,08,27,06,31,13.20
2011,08,27,06,32,13.20
2011,08,27,06,33,13.20
2011,08,27,06,34,13.20
2011,08,27,06,35,13.20
2011,08,27,06,36,13.30
2011,08,27,06,37,13.30
2011,08,27,06,38,13.30
2011,08,27,06,39,13.30
2011,08,27,06,40,13.30
2011,08,27,06,41,13.30
2011,08,27,06,42,13.30
2011,08,27,06,43,13.30
2011,08,27,06,44,13.30
2011,08,27,06,45,13.30
2011,08,27,06,46,13.30
2011,08,27,06,47,13.30
2011,08,27,06,48,13.30
2011,08,27,06,49,13.30
2011,08,27,06,50,13.30
2011,08,27,06,51,13.30
2011,08,27,06,52,13.30
2011,08,27,06,53,13.30
2011,08,27,06,54,13.30
2011,08,27,06,55,13.20
2011,08,27,06,56,13.20
2011,08,27,06,57,13.20
2011,08,27,06,58,13.20
2011,08,27,06,59,13.30
2011,08,27,07,00,13.30
2011,08,27,07,01,13.30
2011,08,27,07,02,13.30
2011,08,27,07,03,13.30
2011,08,27,07,04,13.30
2011,08,27,07,05,13.30
2011,08,27,07,06,13.30
2011,08,27,07,07,13.30
2011,08,27,07,08,13.30
2011,08,27,07,09,13.40
2011,08,27,07,10,13.40
2011,08,27,07,11,13.50
2011,08,27,07,12,13.50
2011,08,27,07,13,13.60
2011,08,27,07,14,13.60
2011,08,27,07,15,13.70
2011,08,27,07,16,13.70
2011,08,27,07,17,13.70
2011,08,27,07,18,13.70
2011,08,27,07,19,13.70
2011,08,27,07,20,13.80
2011,08,27,07,21,13.80
2011,08,27,07,22,13.90
2011,08,27,07,23,13.90
2011,08,27,07,24,13.90
2011,08,27,07,25,14.00
2011,08,27,07,26,14.00
2011,08,27,07,27,14.10
2011,08,27,07,28,14.10
2011,08,27,07,29,14.10
2011,08,27,07,30,14.10
2011,08,27,07,31,14.20
2011,08,27,07,32,14.20
2011,08,27,07,33,14.20
2011,08,27,07,34,14.20
2011,08,27,07,35,14.20
2011,08,27,07,36,14.20
2011,08,27,07,37,14.20
2011,08,27,07,38,14.20
2011,08,27,07,39,14.30
2011,08,27,07,40,14.30
2011,08,27,07,41,14.30
2011,08,27,07,42,14.30
2011,08,27,07,43,14.30
2011,08,27,07,44,14.30
2011,08,27,07,45,14.30
2011,08,27,07,46,14.30
2011,08,27,07,47,14.30
2011,08,27,07,48,14.30
2011,08,27,07,49,14.40
2011,08,27,07,50,14.40
2011,08,27,07,51,14.40
2011,08,27,07,52,14.40
2011,08,27,07,53,14.40
2011,08,27,07,54,14.40
2011,08,27,07,55,14.40
2011,08,27,07,56,14.40
2011,08,27,07,57,14.40
2011,08,27,07,58,14.50
2011,08,27,07,59,14.50
2011,08,27,08,00,14.50
2011,08,27,08,01,14.50
2011,08,27,08,02,14.50
2011,08,27,08,03,14.50
2011,08,27,08,04,14.50
2011,08,27,08,05,14.50
2011,08,27,08,06,14.50
2011,08,27,08,07,14.50
2011,08,27,08,08,14.50
2011,08,27,08,09,14.50
2011,08,27,08,10,14.50
2011,08,27,08,11,14.50
2011,08,27,08,12,14.60
2011,08,27,08,13,14.60
2011,08,27,08,14,14.60
2011,08,27,08,15,14.70
2011,08,27,08,16,14.70
2011,08,27,08,17,14.70
2011,08,27,08,18,14.80
2011,08,27,08,19,14.80
2011,08,27,08,20,14.80
2011,08,27,08,21,14.80
2011,08,27,08,22,14.80
2011,08,27,08,23,14.80
2011,08,27,08,24,14.90
2011,08,27,08,25,14.90
2011,08,27,08,26,14.90
2011,08,27,08,27,15.00
2011,08,27,08,28,15.00
2011,08,27,08,29,15.10
2011,08,27,08,30,15.10
2011,08,27,08,31,15.20
2011,08,27,08,32,15.30
2011,08,27,08,33,15.30
2011,08,27,08,34,15.40
2011,08,27,08,35,15.50
2011,08,27,08,36,15.60
2011,08,27,08,37,15.60
2011,08,27,08,38,15.80
2011,08,27,08,39,15.90
2011,08,27,08,40,16.00
2011,08,27,08,41,16.10
2011,08,27,08,42,16.20
2011,08,27,08,43,16.30
2011,08,27,08,44,16.30
2011,08,27,08,45,16.40
2011,08,27,08,46,16.40
2011,08,27,08,47,16.50
2011,08,27,08,48,16.60
2011,08,27,08,49,16.70
2011,08,27,08,50,16.70
2011,08,27,08,51,16.80
2011,08,27,08,52,16.90
2011,08,27,08,53,17.10
2011,08,27,08,54,17.20
2011,08,27,08,55,17.30
2011,08,27,08,56,17.30
2011,08,27,08,57,17.40
2011,08,27,08,58,17.50
2011,08,27,08,59,17.70
2011,08,27,09,00,17.70
2011,08,27,09,01,17.80
2011,08,27,09,02,17.90
2011,08,27,09,03,18.00
2011,08,27,09,04,18.10
2011,08,27,09,05,18.20
2011,08,27,09,06,18.30
2011,08,27,09,07,18.50
2011,08,27,09,08,18.60
2011,08,27,09,09,18.70
2011,08,27,09,10,18.90
2011,08,27,09,11,19.00
2011,08,27,09,12,19.10
2011,08,27,09,13,19.20
2011,08,27,09,14,19.30
2011,08,27,09,15,19.40
2011,08,27,09,16,19.50
2011,08,27,09,17,19.60
2011,08,27,09,18,19.70
2011,08,27,09,19,19.80
2011,08,27,09,20,19.90
2011,08,27,09,21,20.10
2011,08,27,09,22,20.20
2011,08,27,09,23,20.30
2011,08,27,09,24,20.50
2011,08,27,09,25,20.60
2011,08,27,09,26,20.70
2011,08,27,09,27,20.80
2011,08,27,09,28,20.90
2011,08,27,09,29,20.90
2011,08,27,09,30,20.80
2011,08,27,09,31,20.70
2011,08,27,09,32,20.50
2011,08,27,09,33,20.30
2011,08,27,09,34,20.10
2011,08,27,09,35,19.90
2011,08,27,09,36,19.80
2011,08,27,09,37,19.70
2011,08,27,09,38,19.60
2011,08,27,09,39,19.60
2011,08,27,09,40,19.60
2011,08,27,09,41,19.70
2011,08,27,09,42,19.70
2011,08,27,09,43,19.70
2011,08,27,09,44,19.70
2011,08,27,09,45,19.70
2011,08,27,09,46,19.70
2011,08,27,09,47,19.70
2011,08,27,09,48,19.70
2011,08,27,09,49,19.70
2011,08,27,09,50,19.80
2011,08,27,09,51,19.80
2011,08,27,09,52,19.70
2011,08,27,09,53,19.60
2011,08,27,09,54,19.60
2011,08,27,09,55,19.60
2011,08,27,09,56,19.70
2011,08,27,09,57,19.70
2011,08,27,09,58,19.70
2011,08,27,09,59,19.60
2011,08,27,10,00,19.60
2011,08,27,10,01,19.50
2011,08,27,10,02,19.50
2011,08,27,10,03,19.40
2011,08,27,10,04,19.40
2011,08,27,10,05,19.30
2011,08,27,10,06,19.30
2011,08,27,10,07,19.20
2011,08,27,10,08,19.20
2011,08,27,10,09,19.20
2011,08,27,10,10,19.10
2011,08,27,10,11,19.10
2011,08,27,10,12,19.10
2011,08,27,10,13,19.10
2011,08,27,10,14,19.10
2011,08,27,10,15,19.10
2011,08,27,10,16,19.10
2011,08,27,10,17,19.10
2011,08,27,10,18,19.10
2011,08,27,10,19,19.10
2011,08,27,10,20,19.10
2011,08,27,10,21,19.20
2011,08,27,10,22,19.30
2011,08,27,10,23,19.30
2011,08,27,10,24,19.40
2011,08,27,10,25,19.50
2011,08,27,10,26,19.60
2011,08,27,10,27,19.70
2011,08,27,10,28,19.90
2011,08,27,10,29,19.90
2011,08,27,10,30,20.00
2011,08,27,10,31,20.20
2011,08,27,10,32,20.20
2011,08,27,10,33,20.30
2011,08,27,10,34,20.40
2011,08,27,10,35,20.40
2011,08,27,10,36,20.40
2011,08,27,10,37,20.40
2011,08,27,10,38,20.50
2011,08,27,10,39,20.50
2011,08,27,10,40,20.50
2011,08,27,10,41,20.50
2011,08,27,10,42,20.40
2011,08,27,10,43,20.30
2011,08,27,10,44,20.30
2011,08,27,10,45,20.20
2011,08,27,10,46,20.20
2011,08,27,10,47,20.20
2011,08,27,10,48,20.20
2011,08,27,10,49,20.30
2011,08,27,10,50,20.30
2011,08,27,10,51,20.30
2011,08,27,10,52,20.30
2011,08,27,10,53,20.40
2011,08,27,10,54,20.50
2011,08,27,10,55,20.50
2011,08,27,10,56,20.50
2011,08,27,10,57,20.40
2011,08,27,10,58,20.40
2011,08,27,10,59,20.40
2011,08,27,11,00,20.50
2011,08,27,11,01,20.50
2011,08,27,11,02,20.60
2011,08,27,11,03,20.80
2011,08,27,11,04,20.90
2011,08,27,11,05,21.00
2011,08,27,11,06,21.10
2011,08,27,11,07,21.30
2011,08,27,11,08,21.30
2011,08,27,11,09,21.50
2011,08,27,11,10,21.60
2011,08,27,11,11,21.70
2011,08,27,11,12,21.80
2011,08,27,11,13,21.80
2011,08,27,11,14,21.80
2011,08,27,11,15,21.70
2011,08,27,11,16,21.70
2011,08,27,11,17,21.70
2011,08,27,11,18,21.60
2011,08,27,11,19,21.60
2011,08,27,11,20,21.60
2011,08,27,11,21,21.60
2011,08,27,11,22,21.40
2011,08,27,11,23,21.40
2011,08,27,11,24,21.40
2011,08,27,11,25,21.40
2011,08,27,11,26,21.30
2011,08,27,11,27,21.30
2011,08,27,11,28,21.20
2011,08,27,11,29,21.10
2011,08,27,11,30,20.90
2011,08,27,11,31,20.90
2011,08,27,11,32,20.90
2011,08,27,11,33,21.00
2011,08,27,11,34,21.00
2011,08,27,11,35,21.00
2011,08,27,11,36,20.90
2011,08,27,11,37,21.00
2011,08,27,11,38,21.00
2011,08,27,11,39,21.00
2011,08,27,11,40,20.90
2011,08,27,11,41,21.00
2011,08,27,11,42,21.10
2011,08,27,11,43,21.20
2011,08,27,11,44,21.30
2011,08,27,11,45,21.20
2011,08,27,11,46,21.10
2011,08,27,11,47,21.00
2011,08,27,11,48,21.00
2011,08,27,11,49,21.00
2011,08,27,11,50,21.00
2011,08,27,11,51,21.20
2011,08,27,11,52,21.30
2011,08,27,11,53,21.40
2011,08,27,11,54,21.40
2011,08,27,11,55,21.40
2011,08,27,11,56,21.50
2011,08,27,11,57,21.60
2011,08,27,11,58,21.70
2011,08,27,11,59,21.70
2011,08,27,12,00,21.70
2011,08,27,12,01,21.60
2011,08,27,12,02,21.30
2011,08,27,12,03,21.20
2011,08,27,12,04,21.20
2011,08,27,12,05,21.10
2011,08,27,12,06,21.10
2011,08,27,12,07,21.00
2011,08,27,12,08,21.00
2011,08,27,12,09,21.10
2011,08,27,12,10,21.10
2011,08,27,12,11,21.10
2011,08,27,12,12,21.10
2011,08,27,12,13,21.10
2011,08,27,12,14,21.20
2011,08,27,12,15,21.40
2011,08,27,12,16,21.50
2011,08,27,12,17,21.60
2011,08,27,12,18,21.70
2011,08,27,12,19,21.90
2011,08,27,12,20,22.00
2011,08,27,12,21,22.20
2011,08,27,12,22,22.30
2011,08,27,12,23,22.40
2011,08,27,12,24,22.30
2011,08,27,12,25,22.10
2011,08,27,12,26,22.10
2011,08,27,12,27,22.10
2011,08,27,12,28,22.20
2011,08,27,12,29,22.20
2011,08,27,12,30,22.30
2011,08,27,12,31,22.30
2011,08,27,12,32,22.40
2011,08,27,12,33,22.50
2011,08,27,12,34,22.50
2011,08,27,12,35,22.50
2011,08,27,12,36,22.50
2011,08,27,12,37,22.50
2011,08,27,12,38,22.60
2011,08,27,12,39,22.70
2011,08,27,12,40,22.80
2011,08,27,12,41,22.80
2011,08,27,12,42,22.80
2011,08,27,12,43,22.90
2011,08,27,12,44,22.80
2011,08,27,12,45,22.80
2011,08,27,12,46,22.80
2011,08,27,12,47,22.90
2011,08,27,12,48,22.90
2011,08,27,12,49,22.80
2011,08,27,12,50,22.90
2011,08,27,12,51,22.90
2011,08,27,12,52,22.90
2011,08,27,12,53,22.90
2011,08,27,12,54,22.90
2011,08,27,12,55,22.80
2011,08,27,12,56,22.80
2011,08,27,12,57,22.80
2011,08,27,12,58,22.70
2011,08,27,12,59,22.70
2011,08,27,13,00,22.70
2011,08,27,13,01,22.80
2011,08,27,13,02,22.90
2011,08,27,13,03,22.90
2011,08,27,13,04,23.00
2011,08,27,13,05,23.10
2011,08,27,13,06,23.20
2011,08,27,13,07,23.30
2011,08,27,13,08,23.50
2011,08,27,13,09,23.60
2011,08,27,13,10,23.70
2011,08,27,13,11,23.70
2011,08,27,13,12,23.60
2011,08,27,13,13,23.60
2011,08,27,13,14,23.70
2011,08,27,13,15,23.80
2011,08,27,13,16,23.90
2011,08,27,13,17,24.00
2011,08,27,13,18,24.10
2011,08,27,13,19,24.00
2011,08,27,13,20,24.00
2011,08,27,13,21,24.10
2011,08,27,13,22,24.20
2011,08,27,13,23,24.20
2011,08,27,13,24,24.30
2011,08,27,13,25,24.40
2011,08,27,13,26,24.30
2011,08,27,13,27,24.10
2011,08,27,13,28,24.10
2011,08,27,13,29,24.10
2011,08,27,13,30,24.10
2011,08,27,13,31,24.10
2011,08,27,13,32,24.20
2011,08,27,13,33,24.30
2011,08,27,13,34,24.40
2011,08,27,13,35,24.40
2011,08,27,13,36,24.50
2011,08,27,13,37,24.60
2011,08,27,13,38,24.70
2011,08,27,13,39,24.70
2011,08,27,13,40,24.60
2011,08,27,13,41,24.50
2011,08,27,13,42,24.50
2011,08,27,13,43,24.50
2011,08,27,13,44,24.40
2011,08,27,13,45,24.40
2011,08,27,13,46,24.50
2011,08,27,13,47,24.60
2011,08,27,13,48,24.60
2011,08,27,13,49,24.60
2011,08,27,13,50,24.60
2011,08,27,13,51,24.70
2011,08,27,13,52,24.80
2011,08,27,13,53,24.80
2011,08,27,13,54,24.70
2011,08,27,13,55,24.60
2011,08,27,13,56,24.50
2011,08,27,13,57,24.50
2011,08,27,13,58,24.60
2011,08,27,13,59,24.60
2011,08,27,14,00,24.60
2011,08,27,14,01,24.70
2011,08,27,14,02,24.80
2011,08,27,14,03,24.80
2011,08,27,14,04,24.90
2011,08,27,14,05,24.90
2011,08,27,14,06,24.90
2011,08,27,14,07,25.00
2011,08,27,14,08,25.10
2011,08,27,14,09,25.10
2011,08,27,14,10,25.00
2011,08,27,14,11,25.00
2011,08,27,14,12,25.00
2011,08,27,14,13,25.10
2011,08,27,14,14,25.20
2011,08,27,14,15,25.30
2011,08,27,14,16,25.30
2011,08,27,14,17,25.40
2011,08,27,14,18,25.60
2011,08,27,14,19,25.70
2011,08,27,14,20,25.80
2011,08,27,14,21,25.90
2011,08,27,14,22,26.00
2011,08,27,14,23,26.00
2011,08,27,14,24,26.10
2011,08,27,14,25,26.10
2011,08,27,14,26,26.10
2011,08,27,14,27,26.10
2011,08,27,14,28,25.90
2011,08,27,14,29,25.80
2011,08,27,14,30,25.60
2011,08,27,14,31,25.60
2011,08,27,14,32,25.50
2011,08,27,14,33,25.50
2011,08,27,14,34,25.50
2011,08,27,14,35,25.50
2011,08,27,14,36,25.50
2011,08,27,14,37,25.60
2011,08,27,14,38,25.60
2011,08,27,14,39,25.70
2011,08,27,14,40,25.80
2011,08,27,14,41,25.80
2011,08,27,14,42,25.80
2011,08,27,14,43,25.70
2011,08,27,14,44,25.70
2011,08,27,14,45,25.70
2011,08,27,14,46,25.70
2011,08,27,14,47,25.80
2011,08,27,14,48,25.80
2011,08,27,14,49,25.80
2011,08,27,14,50,25.80
2011,08,27,14,51,25.80
2011,08,27,14,52,25.80
2011,08,27,14,53,25.70
2011,08,27,14,54,25.50
2011,08,27,14,55,25.50
2011,08,27,14,56,25.50
2011,08,27,14,57,25.50
2011,08,27,14,58,25.50
2011,08,27,14,59,25.50
2011,08,27,15,00,25.40
2011,08,27,15,01,25.30
2011,08,27,15,02,25.30
2011,08,27,15,03,25.10
2011,08,27,15,04,25.00
2011,08,27,15,05,24.90
2011,08,27,15,06,25.00
2011,08,27,15,07,25.00
2011,08,27,15,08,25.10
2011,08,27,15,09,24.90
2011,08,27,15,10,24.90
2011,08,27,15,11,24.90
2011,08,27,15,12,25.10
2011,08,27,15,13,25.20
2011,08,27,15,14,25.30
2011,08,27,15,15,25.30
2011,08,27,15,16,25.40
2011,08,27,15,17,25.50
2011,08,27,15,18,25.40
2011,08,27,15,19,25.30
2011,08,27,15,20,25.30
2011,08,27,15,21,25.40
2011,08,27,15,22,25.50
2011,08,27,15,23,25.60
2011,08,27,15,24,25.60
2011,08,27,15,25,25.60
2011,08,27,15,26,25.40
2011,08,27,15,27,25.30
2011,08,27,15,28,25.30
2011,08,27,15,29,25.30
2011,08,27,15,30,25.30
2011,08,27,15,31,25.20
2011,08,27,15,32,25.20
2011,08,27,15,33,25.20
2011,08,27,15,34,25.10
2011,08,27,15,35,25.00
2011,08,27,15,36,25.00
2011,08,27,15,37,25.10
2011,08,27,15,38,25.20
2011,08,27,15,39,25.20
2011,08,27,15,40,25.20
2011,08,27,15,41,25.20
2011,08,27,15,42,25.10
2011,08,27,15,43,25.10
2011,08,27,15,44,25.00
2011,08,27,15,45,25.00
2011,08,27,15,46,25.00
2011,08,27,15,47,25.00
2011,08,27,15,48,25.00
2011,08,27,15,49,25.00
2011,08,27,15,50,25.00
2011,08,27,15,51,25.00
2011,08,27,15,52,25.10
2011,08,27,15,53,25.10
2011,08,27,15,54,25.20
2011,08,27,15,55,25.20
2011,08,27,15,56,25.30
2011,08,27,15,57,25.40
2011,08,27,15,58,25.50
2011,08,27,15,59,25.60
2011,08,27,16,00,25.60
2011,08,27,16,01,25.60
2011,08,27,16,02,25.60
2011,08,27,16,03,25.60
2011,08,27,16,04,25.50
2011,08,27,16,05,25.50
2011,08,27,16,06,25.40
2011,08,27,16,07,25.30
2011,08,27,16,08,25.20
2011,08,27,16,09,25.20
2011,08,27,16,10,25.20
2011,08,27,16,11,25.20
2011,08,27,16,12,25.00
2011,08,27,16,13,24.90
2011,08,27,16,14,24.90
2011,08,27,16,15,25.00
2011,08,27,16,16,25.10
2011,08,27,16,17,25.10
2011,08,27,16,18,25.10
2011,08,27,16,19,25.10
2011,08,27,16,20,25.20
2011,08,27,16,21,25.20
2011,08,27,16,22,25.30
2011,08,27,16,23,25.30
2011,08,27,16,24,25.30
2011,08,27,16,25,25.30
2011,08,27,16,26,25.20
2011,08,27,16,27,25.20
2011,08,27,16,28,25.30
2011,08,27,16,29,25.40
2011,08,27,16,30,25.40
2011,08,27,16,31,25.40
2011,08,27,16,32,25.50
2011,08,27,16,33,25.50
2011,08,27,16,34,25.50
2011,08,27,16,35,25.40
2011,08,27,16,36,25.40
2011,08,27,16,37,25.50
2011,08,27,16,38,25.60
2011,08,27,16,39,25.60
2011,08,27,16,40,25.60
2011,08,27,16,41,25.50
2011,08,27,16,42,25.40
2011,08,27,16,43,25.40
2011,08,27,16,44,25.40
2011,08,27,16,45,25.40
2011,08,27,16,46,25.40
2011,08,27,16,47,25.30
2011,08,27,16,48,25.30
2011,08,27,16,49,25.20
2011,08,27,16,50,25.10
2011,08,27,16,51,25.10
2011,08,27,16,52,25.10
2011,08,27,16,53,25.00
2011,08,27,16,54,25.00
2011,08,27,16,55,25.00
2011,08,27,16,56,25.00
2011,08,27,16,57,25.00
2011,08,27,16,58,24.90
2011,08,27,16,59,24.90
2011,08,27,17,00,24.90
2011,08,27,17,01,25.00
2011,08,27,17,02,25.00
2011,08,27,17,03,25.10
2011,08,27,17,04,25.20
2011,08,27,17,05,25.20
2011,08,27,17,06,25.00
2011,08,27,17,07,25.00
2011,08,27,17,08,25.00
2011,08,27,17,09,25.00
2011,08,27,17,10,24.80
2011,08,27,17,11,24.70
2011,08,27,17,12,24.70
2011,08,27,17,13,24.70
2011,08,27,17,14,24.60
2011,08,27,17,15,24.60
2011,08,27,17,16,24.50
2011,08,27,17,17,24.50
2011,08,27,17,18,24.50
2011,08,27,17,19,24.50